Location: *
(6.3069°S, 169.3574°E)
Time: 05:03:43
(UTC+00:00)

Daily predictions for brighter satellites

Satellite Brightness Start Highest point End
(mag) Time Altitude Azimuth Time Altitude Azimuth Time Altitude Azimuth
SL-16 R/B 2.2 06:48:35 10° N 06:54:15 78° ENE 06:59:56 10° SSE
STARLINK-1042 3.9 06:51:52 10° NNW 06:55:51 50° NE 06:59:53 10° SE
Cosmos 1707 Rocket 3.7 06:52:50 10° S 06:57:06 54° E 07:01:19 10° NNE
YAOGAN 1 4.4 06:55:32 10° ESE 06:57:32 13° E 06:59:31 10° NE
Cosmos 1802 Rocket 4.2 06:53:01 10° N 06:59:17 59° E 07:05:36 10° SSE
STARLINK-1056 3.8 06:56:47 10° NNW 07:00:51 59° ENE 07:04:56 10° SE
ASC 2 Rocket 3.2 06:58:26 10° WSW 07:02:39 76° SSE 07:08:08 10° ENE
CORIOLIS 4.4 06:57:19 10° S 07:02:45 79° WSW 07:08:07 10° NNW
NOSS 2-3 (D) 4.2 06:59:08 10° SSW 07:03:58 63° WNW 07:08:06 10° NNE
Atlas Centaur 2 4.0 06:57:22 10° NNW 07:04:10 33° NE 07:11:35 10° E
STARLINK-1054 3.6 07:01:43 10° NNW 07:05:49 69° NE 07:09:56 10° SE
NOAA 12 4.4 07:02:43 10° S 07:07:58 74° WSW 07:13:09 10° NNW
STARLINK-1062 3.6 07:06:39 10° NNW 07:10:46 81° NE 07:14:55 10° SE
Cosmos 1862 Rocket 4.3 07:07:15 10° SSE 07:11:14 31° E 07:15:09 10° NNE
Cosmos 405 3.8 07:08:08 10° SSW 07:11:33 53° W 07:14:54 10° N
Cosmos 1602 4.0 07:08:07 10° NNE 07:11:45 44° E 07:15:24 10° SSE
STARLINK-1053 3.6 07:11:36 10° NW 07:15:43 87° SW 07:19:43 11° SSE
Okean O Rocket 4.4 07:13:06 10° SW 07:16:03 18° WSW 07:19:00 10° WNW
STARLINK-1061 3.7 07:16:35 10° NW 07:20:42 75° SW 07:24:31 12° SSE
IRS-1C Rocket 4.4 07:15:46 10° S 07:21:01 72° WSW 07:26:14 10° NNW
BREEZE-M DEB (TANK) 3.3 07:13:16 10° SSW 07:21:24 54° SE 07:24:16 10° ENE
Cosmos 1869 Rocket 4.3 07:17:52 10° NNE 07:21:39 30° E 07:24:45 14° SE
H-2A ROCKET BODY 2.8 07:21:04 10° WNW 07:22:21 16° NNW 07:23:54 10° NNE
STARLINK-1065 3.8 07:18:23 10° NW 07:22:28 70° SW 07:26:14 12° SSE
CZ-2C R/B 4.0 07:20:18 10° ENE 07:23:44 17° ESE 07:24:03 17° ESE
Cosmos 1943 4.4 07:20:03 10° NNE 07:24:10 21° ENE 07:26:09 18° ESE
Cosmos 2278 Rocket 3.0 07:19:36 10° SSE 07:24:25 28° ESE 07:29:12 10° NE
STARLINK-1067 4.0 07:21:36 10° NW 07:25:40 64° SW 07:29:18 13° SSE
Cosmos 1933 Rocket 4.2 07:22:33 10° NNW 07:26:47 57° W 07:31:03 10° S
STARLINK-1058 4.2 07:26:35 10° NW 07:30:38 54° SW 07:34:04 14° SSE
ARIANE 5 DEB (SYLDA) 2.9 07:30:25 10° WNW 07:32:08 28° N 07:33:04 21° NE
Cosmos 2233 Rocket 4.3 07:28:47 10° NNE 07:34:38 45° E 07:40:34 10° SSE
STARLINK-1043 4.5 07:31:38 10° NW 07:35:36 46° SW 07:38:52 15° SSE
OAO 3 Rocket 3.9 07:33:09 10° NNW 07:37:50 42° NE 07:40:05 26° E
Cosmos 2056 Rocket 3.6 07:33:44 10° S 07:38:46 48° ESE 07:43:41 10° NNE
FALCON 9 R/B 3.0 07:32:29 10° WSW 07:41:06 47° NW 07:44:19 10° NNE
CZ-2D R/B 3.2 07:39:13 21° SSE 07:41:41 63° E 07:45:29 10° N
USA 267 4.3 07:52:29 23° ENE 07:54:09 25° NE 07:59:20 10° N
OE (NEXTSAT) 4.2 07:51:24 10° SW 07:54:46 69° SSE 07:54:46 69° SSE
MOS 1 Rocket 3.5 07:53:02 10° NNE 07:56:18 40° ENE 07:56:18 40° ENE
Delta 7925 Rocket 3.9 07:53:55 10° W 07:59:17 48° SSW 08:00:47 36° SSE
CSL-04 Rocket 3.6 07:57:19 31° SSE 07:59:52 64° ENE 08:05:14 10° N
Okean-O 4.1 07:55:51 10° S 07:59:56 36° WSW 08:03:59 10° NW
H-2A R/B 2.2 07:59:12 10° WNW 08:00:10 27° WNW 08:00:10 27° WNW
CZ-2C R/B 4.2 07:57:26 10° NNE 08:00:50 40° ENE 08:00:50 40° ENE
Meteor 1-18 Rocket 4.4 08:02:12 43° ESE 08:02:24 44° E 08:07:38 10° NNE
STARLINK-1175 4.5 08:00:38 10° NNW 08:01:57 26° NNW 08:01:57 26° NNW
Meteor 1-5 Rocket 4.2 07:58:49 10° N 08:04:28 69° E 08:07:12 32° SSE
BLOCK DM-SL R/B 2.4 08:08:07 10° NW 08:09:39 27° N 08:09:39 27° N
DMSP B5D2-2 3.9 08:06:27 10° NNE 08:11:38 65° ESE 08:12:46 51° SSE
Cosmos 1500 3.4 08:09:53 10° N 08:13:23 68° NW 08:13:23 68° NW
ARIANE 5 DEB (SYLDA) 4.4 08:05:28 10° W 08:15:37 64° N 08:16:10 57° NNE
ATLAS 5 CENTAUR R/B 1.7 08:13:14 10° WNW 08:16:36 72° NNE 08:18:03 52° E
Cosmos 405 Rocket 3.2 08:14:23 10° NNW 08:17:44 58° NW 08:17:44 58° NW
Milstar 3 Cent rocket 3.9 08:15:11 10° W 08:20:16 38° NNW 08:28:55 10° NE
BREEZE M DEB (TANK) 3.9 08:05:27 10° NW 08:26:50 76° NE 08:28:16 58° ESE
CZ-4 R/B 3.8 08:24:47 10° SSW 08:27:51 21° WSW 08:30:58 10° NW
GPS 2-14 Rocket1 3.9 08:24:28 10° W 08:27:41 43° WNW 08:27:41 43° WNW
Meteor 1-11 Rocket 3.5 08:24:28 10° N 08:29:41 80° NNE 08:29:41 80° NNE
CZ-3C R/B 3.0 08:28:20 10° SW 09:00:22 - E 08:30:17 30° SSW
ATLAS 2AS CENTAUR RB 2.6 08:25:39 10° WNW 08:34:40 46° NNW 08:34:40 46° NNW
Meteor 2-11 Rocket 4.3 08:31:11 10° N 08:37:12 89° NNW 08:37:12 89° NNW
Delta 168 4.1 08:31:45 10° WNW 08:40:25 69° NNE 08:40:29 69° NNE
ARIANE 5 DEB (SYLDA) 4.5 08:39:00 10° W 08:43:07 73° N 08:45:34 51° ENE
H-2A R/B 3.5 08:51:25 28° NNW 08:51:25 28° NNW 08:53:44 10° NNW
Cosmos 44 4.5 08:47:01 10° NW 08:50:45 43° WNW 08:50:45 43° WNW
Atlas Centaur 2 3.0 08:45:41 10° WNW 08:53:59 80° SSW 08:54:16 79° S
CZ-2C R/B 4.1 08:58:40 10° NNW 09:03:41 35° WNW 09:05:34 27° WSW
